Starlink 32577

operational
NORAD ID: 62044 Int'l Des: 2024-216 Owner: SPXS Country: US Constellation: starlink
LEOCIRCULAR

Starlink 32577について

説明を読み込み中...

リアルタイム位置

3D地球を読み込み中...

次回通過

高度履歴

Altitude vs Time

uPlot chart will show altitude changes over time

軌道要素

1 62044U 24216N 25260.02316928 .00022904 00000-0 83904-3 0 9991
2 62044 42.9995 164.1868 0001165 258.9079 101.1642 15.27588542 47242
Epoch: Sep 17, 2025 • Age: 11 hours

現在のステータス

高度 495.5 km
速度 7.62 km/s
衛星直下点 -43.15°S, 90.91°W
打ち上げ日 Nov 21, 2024
運用期間 0.8 years
タイプ internet

技術仕様

分類 Payload
質量 730.00 kg
乾燥質量 700.00 kg
総質量 730.00 kg
長さ 0.30 m
直径 4.10 m
スパン 29.00 m
形状 Box + pan
製造者 SPXS
バスタイプ Starlink V2M
フェーズステータス In Orbit
所有者/国 SPXS/US

大規模コンステレーション

Loading constellations...